Regional Weather Roundup
Issued by NWS

Home | Current Version | Previous Version | Graphics & Text | Print | Product List | Glossary On
Versions: 1 2 3 4 5 6 7 8 9 10 11 12 13 14 15 16 17 18 19 20 21 22 23 24 25 26 27 28 29 30 31 32 33 34 35 36 37 38 39 40 41 42 43 44 45 46 47 48 49 50
000
ASUS43 KOAX 131210
RWRNE

WEATHER ROUNDUP FOR NEBRASKA
NATIONAL WEATHER SERVICE OMAHA NE
700 AM CDT SUN JUL 13 2014

NOTES: SATELLITE DATA IS BEING USED TO AUGMENT CLOUD COVER ABOVE
       12000 FEET.
       "FAIR" INDICATES FEW OR NO CLOUDS BELOW 12,000 FEET WITH NO
       SIGNIFICANT WEATHER AND/OR OBSTRUCTIONS TO VISIBILITY.

  * THESE STATIONS DO NOT REPORT WEATHER SUCH AS RAIN...SNOW OR FOG.

NEZ001>004-019>022-054>056-131300-
NEBRASKA PANHANDLE

CITY           SKY/WX    TMP DP  RH WIND       PRES   REMARKS
SCOTTSBLUFF    MOCLDY    63  62  97 SW3       30.26R
6HR MIN TEMP:  61; 6HR MAX TEMP:  66;

ALLIANCE       CLEAR     55  54  96 CALM      30.25R
6HR MIN TEMP:  55; 6HR MAX TEMP:  64;

CHADRON        CLEAR     55  54  96 W7        30.21S
6HR MIN TEMP:  53; 6HR MAX TEMP:  62;

KIMBALL        CLEAR     58  57  96 CALM      30.30S
SIDNEY         CLEAR     58  55  90 CALM      30.28S
6HR MIN TEMP:  57; 6HR MAX TEMP:  61;

$$

NEZ057>060-069>072-079>082-131300-
SOUTHWEST NEBRASKA

CITY           SKY/WX    TMP DP  RH WIND       PRES   REMARKS
NORTH PLATTE   MOCLDY    62  60  93 CALM      30.21R FOG
6HR MIN TEMP:  59; 6HR MAX TEMP:  64;

IMPERIAL       CLOUDY    63  60  90 N5        30.23R
6HR MIN TEMP:  62; 6HR MAX TEMP:  69;

LEXINGTON      CLEAR     64  63  97 NW5       30.18S FOG
MCCOOK         MOCLDY    65  63  93 NW6       30.19F
6HR MIN TEMP:  64; 6HR MAX TEMP:  70;

OGALLALA       MOCLDY    59  58  97 CALM      30.23S FOG
$$

NEZ005>010-023>029-035>040-094-131300-
NORTH CENTRAL NEBRASKA

CITY           SKY/WX    TMP DP  RH WIND       PRES   REMARKS
VALENTINE      PTCLDY    63  62  97 W6        30.16R
6HR MIN TEMP:  60; 6HR MAX TEMP:  65;

AINSWORTH      CLEAR     63  62  97 W6        30.15S
BROKEN BOW     CLEAR     61  60  97 SW3       30.17R FOG
6HR MIN TEMP:  59; 6HR MAX TEMP:  66;

O`NEILL        CLEAR     64  60  88 NW5       30.13R
ORD            CLEAR     62  60  93 NW3       30.13R
6HR MIN TEMP:  59; 6HR MAX TEMP:  65;

THEDFORD       CLEAR     61  60  97 CALM      30.20R
$$

NEZ041-046>049-061>064-073>077-083>087-131300-
SOUTH CENTRAL NEBRASKA

CITY           SKY/WX    TMP DP  RH WIND       PRES   REMARKS
GRAND ISLAND   CLEAR     67  64  90 W5        30.13R
6HR MIN TEMP:  64; 6HR MAX TEMP:  68;

AURORA           N/A     64  64 100 CALM      30.12R FOG
HASTINGS       CLEAR     66  62  87 W3        30.13R
6HR MIN TEMP:  65; 6HR MAX TEMP:  70;

HEBRON         PTCLDY    69  66  91 NW5       30.08S FOG
HOLDREGE       PTCLDY    65  63  95 W6        30.16S FOG
KEARNEY *      CLEAR     64  63  94 NW8       30.15S
YORK           CLEAR     64  64 100 NW5       30.11R FOG
$$

NEZ011>018-030>034-042>045-131300-
NORTHEAST NEBRASKA

CITY           SKY/WX    TMP DP  RH WIND       PRES   REMARKS
NORFOLK        CLEAR     65  63  93 CALM      30.09S
6HR MIN TEMP:  62; 6HR MAX TEMP:  67;

ALBION         CLEAR     62  61  97 CALM      30.11S FOG
BLAIR          CLEAR     66  63  90 CALM      30.07R FOG
TEKAMAH        CLEAR     64  63  96 S5        30.05R FOG
6HR MIN TEMP:  61; 6HR MAX TEMP:  65;

WAYNE          CLEAR     64  64  97 CALM      30.08S FOG
$$

NEZ050>053-065>068-078-088>093-131300-
SOUTHEAST NEBRASKA

CITY           SKY/WX    TMP DP  RH WIND       PRES   REMARKS
LINCOLN        PTCLDY    67  63  87 N6        30.08R
6HR MIN TEMP:  65; 6HR MAX TEMP:  73;

OMAHA EPPLEY   PTCLDY    69  65  86 CALM      30.06R
6HR MIN TEMP:  67; 6HR MAX TEMP:  71;

BEATRICE       PTCLDY    65  65  99 N6        30.06R
FALLS CITY     CLOUDY    71  69  93 N5        30.01S
6HR MIN TEMP:  71; 6HR MAX TEMP:  75; 6HR PCP:  0.87;

NEBRASKA CITY  PTCLDY    67  67 100 CALM      30.05R
PLATTSMOUTH    PTCLDY    67  65  94 NW3       30.06R FOG
$$

NEZ044-045-051>053-067-131300-
OMAHA AREA

CITY           SKY/WX    TMP DP  RH WIND       PRES   REMARKS
OMAHA EPPLEY   PTCLDY    69  65  86 CALM      30.06R
6HR MIN TEMP:  67; 6HR MAX TEMP:  71;

BLAIR          CLEAR     66  63  90 CALM      30.07R FOG
MILLARD        CLEAR     68  66  93 NW3       30.06R
OFFUTT AFB     CLEAR     67  67 100 NW6       30.05R
PLATTSMOUTH    PTCLDY    67  65  94 NW3       30.06R FOG
WAHOO          FAIR      66  64  91 CALM      30.07S
$$


USA.gov is the U.S. government's official web portal to all federal, state and local government web resources and services.